Regional Weather Roundup
Issued by NWS Goodland, KS

Home | Current Version | Previous Version | Graphics & Text | Print | Product List | Glossary On
Versions: 1 2 3 4 5 6 7 8 9 10 11 12 13 14 15 16 17 18 19 20 21 22 23 24 25 26 27 28 29 30 31 32 33 34 35 36 37 38 39 40 41 42 43 44 45 46 47 48 49 50
000
ASUS43 KGLD 010059
RWRGLD

GOODLAND FORECAST AREA HOURLY WEATHER ROUNDUP
NATIONAL WEATHER SERVICE GOODLAND KS
700 PM MDT SAT APR 30 2016

...OFFICIAL OBSERVATIONS...

CITY           SKY/WX    TMP DP  RH WIND       PRES   REMARKS
GOODLAND KS    FLURRIES  36  33  89 N23       29.93R
HILL CITY KS   CLOUDY    44  38  79 NW8       29.88S
IMPERIAL NEB   CLOUDY    36  33  89 N20G26    29.96R
MCCOOK NEB     CLOUDY    39  35  86 N16       29.90R
AKRON CO       SNOW      32  31  96 N26       30.03R VSB 1/2 WCI  18
BURLINGTON CO  CLOUDY    35  32  88 NW21G28   29.97R
LIMON CO       LGT SNOW  31  30  96 N31G38    30.02R FOG     WCI  16
$$

...UNOFFICIAL OBSERVATIONS...

CITY           SKY/WX    TMP DP  RH WIND       PRES   REMARKS
COLBY KS       CLOUDY    37  37 100 NW21      29.91S
GOVE KS          N/A     42  32  68 MISG        N/A
LENORA KS        N/A     42  32  68 MISG        N/A
NORTON KS      CLOUDY    39  36  87 W10G18    29.87R
SHARON SPRINGS   N/A     39  34  81 NW20G28     N/A
KIT CARSON CO    N/A     36  31  82 MISG        N/A
YUMA CO          N/A     34  32  93 N15         N/A
$$



USA.gov is the U.S. government's official web portal to all federal, state and local government web resources and services.